DELTA 1 DEB, 4499

Orbit data source: Space-Track

DELTA 1 DEB, 4499 is space debris in SSO originally from a launch on Fri, 16 Aug 1968 UTC launched from the Air Force Western Test Range (AFWTR). Debris objects in space refer to the collection of defunct objects orbiting the Earth. Examples of debris include non-operational satellites, rocket bodies, and fragments generated from explosions, collisions, or faulty payload assembly.

Loading next visibility...
Identifier
4499, 1968-069G
Orbit
SSO
Last TLE update
2 days ago
Origin
Manufacturer
Unknown
Mission
Spacecraft
Bus & Motor
Unknown
Mass
Unknown
Launch date (UTC)
1968-08-16 (57 years ago)
Launch vehicle
Unknown
Launch site
Air Force Western Test Range (AFWTR)
Object type
Payload
Rocket body
Debris
Shape & HBR
Unknown
Radar Cross Section
Small (<0.1 m²)

Expand to show TLE details & history

TLE from 2 days ago
0 DELTA 1 DEB
1 04499U 68069G   25185.62332039 -.00000028  00000-0  91926-4 0  9996
2 04499 101.3683 207.9327 0027817 316.0229 169.2417 12.51288552599785
Epoch: 2025-07-04T14:57Z
TLE epoch observation values (Epoch: 2025-07-04T14:57:34.881Z)
Latitude
53.21354°
Longitude
-103.81548°
Altitude
1,489.032 km
Speed
7.114 km/s
True Right ascension
02h 53m 48s
True Declination
53° 03' 50"
Sunlit
Object was in daylight at epoch
Visualization orbit readout
Latitude
33.89548°
Longitude
-110.08094°
Altitude
1,484.58 km
Speed
7.115 km/s
Apparent Right ascension
03h 43m 13s
Apparent Declination
1° 35' 05"
Sunlit
Object is in daylight
Visualization observer readout
Local Sidereal Time
17:24:00
Azimuth
35.274° NE
Elevation
-42.532°
Doppler factor
1
Orbital elements
Apogee altitude
1,478.427 km
Perigee altitude
1,434.839 km
Semi-major axis
7,834.77 km
Eccentricity
0.00278
Inclination
101.3683°
RAAN
207.9327°
Arg. of periapsis
316.0229°
True anomaly
Unknown
Mean anomaly
169.2417°
Eccentric anomaly
Unknown
Mean motion
3.12971 °/min
Orbital period
115.03 mins
BSTAR
0.000091926
Loading maneuver chart data...
Loading SW <> Apogee altitude chart data...
Loading historical data...
Loading historical data...
Loading historical data...
Loading historical data...
Loading historical data...
Loading historical data...
Loading historical data...

DELTA 1 DEB Visibility forecast

Observer location: undefined°, undefined°

Span
Click to sort rows by Start time (UTC) header in descending order
Start Az.
Max El. time (UTC)
Max El. Az.
Max El.
End time (UTC)
End Az.
12 mins2025-07-06 13:00:39.987Z46.799° ENE2025-07-06 13:06:39.987Z97.848° ESE22.871°2025-07-06 13:12:39.987Z144.921° SSE
15 mins2025-07-06 14:52:39.987Z11.216° NNE2025-07-06 14:59:39.987Z301.15° NW43.226°2025-07-06 15:07:39.987Z210.848° SW
7 mins2025-07-06 16:48:39.987Z332.963° NNW2025-07-06 16:51:39.987Z309.245° NW15.555°2025-07-06 16:55:39.987Z279.708° WNW
12 mins2025-07-07 00:00:39.987Z113.11° SE2025-07-07 00:06:39.987Z54.844° ENE29.328°2025-07-07 00:12:39.987Z2.624° NNE
14 mins2025-07-07 01:52:39.987Z185.254° SSW2025-07-07 01:58:39.987Z250.047° W39.49°2025-07-07 02:06:39.987Z333.882° NNW
|